Regional Weather Roundup
Issued by NWS

Home | Current Version | Previous Version | Graphics & Text | Print | Product List | Glossary On
Versions: 1 2 3 4 5 6 7 8 9 10 11 12 13 14 15 16 17 18 19 20 21 22 23 24 25 26 27 28 29 30 31 32 33 34 35 36 37 38 39 40 41 42 43 44 45 46 47 48 49 50
000
ASUS43 KTOP 190459
RWRKS

WEATHER ROUNDUP FOR KANSAS
NATIONAL WEATHER SERVICE GOODLAND KS
1200 AM CDT SAT AUG 19 2017

NOTE:  "FAIR" INDICATES FEW OR NO CLOUDS BELOW 12,000 FEET WITH NO
SIGNIFICANT WEATHER AND/OR OBSTRUCTIONS TO VISIBILITY.

KSZ001>006-013>018-027>032-041>047-190600-
NORTHWEST KANSAS

CITY           SKY/WX    TMP DP  RH WIND       PRES   REMARKS
GOODLAND       FAIR      63  57  81 SE9       30.09F
HAYS           FAIR      68  61  78 NE8       30.00S
HILL CITY      FAIR      63  60  90 CALM      30.02S
RUSSELL        FAIR      71  64  78 E8        29.98S
$$

KSZ061>065-074>080-084>089-190600-
SOUTHWEST KANSAS

CITY           SKY/WX    TMP DP  RH WIND       PRES   REMARKS
DODGE CITY     FAIR      70  62  76 N6        30.02R
ELKHART          N/A     72  68  88 S8          N/A
GARDEN CITY    FAIR      73  61  65 NE9       30.05R
GREAT BEND     FAIR      75  68  78 NE6       29.99S
LIBERAL        FAIR      72  68  87 S7        30.05R
$$

KSZ066>073-081>083-090>101-190600-
SOUTHEAST KANSAS

CITY           SKY/WX    TMP DP  RH WIND       PRES   REMARKS
CHANUTE        FAIR      74  69  85 S5        29.96R
COFFEYVILLE    FAIR      73  71  93 CALM      29.95R
HUTCHINSON     MOCLDY    75  67  76 E3        29.97R
MEDICINE LODGE   N/A     75  68  78 CALM      29.96R
NEWTON         CLOUDY    74  68  81 S7        29.98S
PARSONS        FAIR      71  69  93 CALM      29.97R
WICHITA INTL   FAIR      78  67  68 E6        29.95S
WICHITA JABRA  FAIR      74  69  85 SE3       29.96S
WINFIELD       FAIR      75  68  78 E6        29.96R
$$

KSZ007>012-019>026-033>040-048>060-102>105-190600-
NORTHEAST KANSAS

CITY           SKY/WX    TMP DP  RH WIND       PRES   REMARKS
CONCORDIA      FAIR      68  66  93 CALM      29.97S
EMPORIA        FAIR      76  67  73 CALM      29.96R
LAWRENCE       FAIR      70  70 100 E3        29.94R
MANHATTAN      FAIR      70  68  93 CALM      29.95R
OLATHE IND     FAIR      72  70  93 S5        29.96R
OLATHE EXE     FAIR      72  71  97 S3        29.96R
SALINA         FAIR      76  68  76 SE5       29.97S
TOPEKA BILLARD FAIR      72  70  93 CALM      29.94R
TOPEKA FORBES  FAIR      74  71  91 NE3       29.95R
$$




USA.gov is the U.S. government's official web portal to all federal, state and local government web resources and services.